{"data":{"norad_id":53922,"epoch":"2026-09-20T22:24:42.186240Z","epoch_age_seconds":49050,"freshness":"FRESH","line1":"1 53922U 22119AN  26263.93382160  .00000058  00000+0  21760-4 0  9999","line2":"2 53922  53.1603 156.7195 0001885  96.5534 263.5672 15.08832547221301","mean_motion":15.08832547,"eccentricity":0.0001885,"inclination_deg":53.1603,"raan_deg":156.7195,"arg_perigee_deg":96.5534,"mean_anomaly_deg":263.5672,"bstar":2.176e-5,"rev_number":22130,"period_min":95.438026099261,"perigee_km":538.46214514973,"apogee_km":541.07019464478,"semimajor_km":6917.9031698973,"source":"CELESTRAK","updated_at":"2026-09-21T09:00:33.035449Z"}}